Lid_Strength_Index
1 -0 -2 -1 -1 -1 -1 -1 -1 -1 -1 -1 -1 -1 -1 -1 -1 -1 -2 -2 -2 -1 -1 -1 -2 -2 -2 -1 -1 -1 -1 -1 -1 -1 -1 -1 -1 -1 -1 -1 -1 -0 -1
1 -1 -2 -2 -2 -2 -2 -1 -1 -1 -2 -2 -2 -2 -2 -1 -1 -1 -1 -2 -2 -2 -2 -1 -2 -2 -2 -2 -1 -1 -1 -1 -1 -1 -1 -1 -1 -1 -1 -1 -2 -1 -1
3 1 -1 -2 -2 -2 -2 -1 -1 -1 -1 -1 -1 -1 -1 -1 -1 -1 -1 -1 -1 -1 -2 -2 -1 -2 -1 -2 -1 -1 -1 -1 -1 -2 -1 0 -0 -1 -1 -1 -1 -1 -1
6 2 1 -1 -2 -2 -2 -1 -1 -1 -1 -1 -1 -1 -1 -1 -1 -1 -1 -1 -1 -1 -1 -1 -1 -1 -1 -1 -1 -1 -1 -1 -1 -1 0 -0 -0 -1 -1 -1 -1 -1 -1
8 6 1 -0 -1 -1 -2 -2 -2 -1 -1 -1 -1 -1 -1 -1 -1 -1 -1 -1 -1 -1 -1 -1 -1 -1 -1 -1 -1 -1 -1 -1 -1 1 1 0 0 -1 -1 -1 -1 -1 -1
8 8 3 0 -1 -1 -2 -2 -2 -2 -2 -2 -2 -2 -2 -1 -1 -1 -1 -1 -1 -1 -1 -1 -1 -1 -1 -1 -1 -1 -1 -1 -0 2 0 0 0 -1 -1 -1 -1 -1 -1
10 9 7 1 -1 -2 -2 -2 -2 -2 -2 -2 -2 -2 -2 -2 -1 -1 -1 -1 -1 -1 -1 -1 -1 -1 -1 -1 -1 -1 -1 -2 0 1 2 0 0 -1 -1 -1 -1 -1 -1
11 11 9 5 2 -0 -2 -2 -2 -2 -2 -2 -2 -2 -2 -2 -1 -2 -1 -1 -2 -1 -1 -1 -1 -1 -1 -1 -1 -1 -1 -1 0 1 1 0 -1 -1 -1 -1 -1 -1 -1
12 11 10 8 5 2 -0 -1 -2 -1 -1 -2 -2 -2 -2 -2 -1 -0 -1 -1 -2 -2 -2 -1 -1 -1 -1 -1 -1 -2 -1 -1 1 1 1 1 -1 -1 -2 -1 -1 -1 -1
12 12 10 9 8 5 3 0 0 0 1 1 1 1 1 1 -0 -1 -1 -2 -2 -2 -2 -2 -1 -1 -2 -2 -2 -1 -1 -1 1 0 1 1 -1 -1 -1 -1 -1 -1 -1
13 12 11 11 10 8 5 4 3 2 3 4 5 3 4 4 4 2 0 -0 -1 -1 -1 -2 -2 -1 -1 -1 -1 -1 -0 0 1 0 1 -0 -1 -2 -1 -1 -1 -1 -1
15 13 12 12 11 10 8 8 6 7 7 8 9 9 8 8 6 4 3 1 1 0 0 -0 -0 0 -1 0 0 0 1 1 1 2 1 -1 -2 -2 -2 -2 -2 -1 -1
14 13 13 13 12 12 11 10 9 10 10 9 10 11 10 10 10 8 6 5 5 4 3 2 2 2 2 0 1 1 1 1 1 2 2 -1 -2 -2 -2 -2 -2 -2 -1
14 14 14 13 13 13 12 12 11 11 12 12 11 11 12 12 11 10 10 10 9 8 6 4 3 3 2 1 1 0 0 1 1 1 2 1 -1 -2 -2 -2 -2 -2 -2
15 14 14 14 14 14 14 13 13 12 12 13 12 12 12 13 13 12 11 11 11 10 9 7 5 4 3 3 2 1 1 0 1 0 1 2 1 -2 -2 -2 -2 -2 -2
15 15 15 15 15 15 15 15 14 14 13 13 14 13 12 13 13 13 12 11 11 11 10 9 9 7 5 3 3 3 2 1 1 0 -1 1 2 -0 -2 -2 -2 -2 -2
16 16 15 15 15 16 15 15 15 15 14 14 15 14 14 14 14 14 13 12 12 11 11 10 10 10 8 7 4 3 2 2 1 1 0 -1 0 1 -0 -1 -2 -2 -2
16 16 16 15 16 16 16 16 16 15 15 15 15 15 15 14 14 15 14 14 13 12 12 11 11 11 11 10 8 5 4 3 2 2 0 -0 0 -1 0 -0 -1 -2 -2
17 17 17 16 16 16 16 16 16 16 15 15 15 15 15 15 15 15 15 14 14 14 13 13 12 11 12 11 9 9 6 4 3 2 2 1 -0 -0 -0 -0 0 -0 -1
17 17 17 16 16 16 16 16 16 16 16 16 16 15 15 15 15 15 15 15 15 15 15 14 14 12 13 11 11 11 6 7 4 3 3 2 1 -0 -0 -0 -0 0 1
17 17 17 17 17 17 17 17 18 18 17 16 15 15 15 15 15 15 15 15 15 15 16 15 15 15 14 12 13 12 11 9 6 4 3 3 2 1 0 -0 -0 -0 -0
18 18 18 17 17 17 17 17 17 17 17 16 16 16 15 15 15 15 15 15 15 15 15 15 16 16 15 14 14 12 10 9 7 5 3 3 3 2 2 0 0 -0 -0
20 19 18 17 17 17 17 17 17 17 17 17 17 16 16 15 15 15 15 15 15 15 15 15 15 15 17 15 14 14 14 12 12 7 6 5 4 4 3 2 0 -0 -0
20 19 18 18 17 17 17 18 18 18 19 18 17 16 16 15 15 14 14 15 15 15 15 15 14 15 15 16 15 14 14 15 16 16 9 11 9 6 4 4 2 1 -0
20 20 19 18 17 17 17 18 18 19 18 17 17 17 17 16 15 15 14 15 15 14 15 15 15 15 14 15 15 15 15 15 15 15 18 15 10 8 7 5 4 3 2
20 20 20 19 18 18 18 18 18 19 19 18 18 18 17 16 16 15 15 15 15 14 14 14 14 14 14 14 14 14 15 16 16 17 17 17 16 13 11 10 9 4 3